Location: Albany
(35.0000°S, 118.0000°E)
Time: 00:36:29
(UTC-04:00)

Vanguard 3 - Visible Passes

Search period start: 21 August 2017 00:00
Search period end: 31 August 2017 00:00
Orbit: 509 x 3265 km, 33.3° (Epoch: 20 August)

Date Brightness Start Highest point End Pass type
(mag) Time Alt. Az. Time Alt. Az. Time Alt. Az.
21 Aug 11.7 07:45:09 10° WNW 07:52:20 14° NW 08:00:20 10° NNW visible
22 Aug 11.4 06:26:54 10° WNW 06:36:40 23° NW 06:49:13 10° N visible
24 Aug 11.6 06:12:47 10° WNW 06:20:38 18° NNW 06:30:26 10° N visible
26 Aug 11.7 05:59:46 10° NW 06:04:45 13° NNW 06:10:34 10° NNW visible
